星链-33761 (STARLINK-33761)

导读

STARLINK-33761是美国SpaceX星链星座的卫星,于2025年4月4日发射入轨,属于Starlink Gen2系列。该卫星依托星链低轨星座部署,承担全球宽带互联网接入服务,为偏远地区、移动载体提供高速网络覆盖,进一步扩充了星链星座的规模与服务能力。

Basic Information
目录编号:
63455
目录名称:
STARLINK-33761
国际标识:
2025-069Y
轨道中心:
EARTH
卫星名称:
星链-33761
卫星全名:
星链-33761 (STARLINK-33761)
卫星状态:
在轨 (已飞行518 天)
发射日期:
2025-04-04 UTC
国别 :
美国 (US)
星等 :
--
Orbit Information
数据来源 国际轨道数据
星历时间: 2026-09-04T00:49:45+0800
11小时前
查看轨道信息
半长轴: 6840.886km
偏心率: 0.0001208
轨道倾角: 53.159°
近地点辐角 81.481°
升交点赤经 28.183°
平近点角 278.632°
近地点: 461.922km
远地点: 463.576km
周期: 93.849分钟
每日圈数: 15.343847
Detailed Information
固有亮度:
5
最大亮度:
2.5
卫星平台:
Starlink V1.0
覆盖范围:
全球
运营商:
太空探索技术公司
运营商所在国:
美国
制造商(研发单位):
太空探索技术公司
制造商所在国:
美国
使用方式:
暂无
Satellite Introduction
Starlink 计划是 SpaceX 推出的全球卫星互联网项目,通过发射低轨道卫星,为全球尤其是偏远地区提供高速、低延迟的互联网服务。自 2019 年起,Starlink 已部署数千颗卫星,旨在缩小全球数字鸿沟,推动互联网普及。该项目还为军事、航空等行业提供通信支持,带来广泛经济效益。
2D Orbit Map
3D Orbit Map
Orbit Altitude Analysis Chart
Orbit Inclination Analysis Chart
Orbit Comprehensive Analysis Chart
View Comprehensive Chart
Conjunction Data List
Event ID Objects TCA Miss Dist (km) Collision Risk Probability Collision Risk Index (CRI) Action
CDM_260905-002205-854406-345521
2026-09-05T
00:22:31+0000
0.493 km
远距离
1.402034E-4 高风险 0.78
CDM_260904-063405-314906-345522
2026-09-04T
06:34:00+0000
0.472 km
远距离
1.20638E-4 高风险 0.77
CDM_260905-002506-166806-345521
2026-09-05T
00:25:18+0000
0.489 km
远距离
1.087457E-4 高风险 0.76
CDM_260904-172306-166806-345521
2026-09-04T
17:23:14+0000
0.543 km
远距离
8.217268E-5 中风险 0.73
CDM_260904-141205-854406-345521
2026-09-04T
14:12:52+0000
0.617 km
远距离
7.755168E-5 中风险 0.73
CDM_260903-233105-314906-345522
2026-09-03T
23:31:56+0000
0.860 km
远距离
2.051314E-5 中风险 0.61
CDM_260903-215805-314906-345522
2026-09-03T
21:58:09+0000
1.659 km
极远距离
2.328851E-6 低风险 0.42
CDM_260905-145605-114106-345521
2026-09-05T
14:56:19+0000
2.257 km
极远距离
1.913281E-6 低风险 0.41
CDM_260904-154605-854406-345521
2026-09-04T
15:46:40+0000
2.244 km
极远距离
1.427628E-6 低风险 0.38
CDM_260905-015605-854406-345521
2026-09-05T
01:56:19+0000
2.703 km
极远距离
1.032357E-6 低风险 0.35